Simultaneous Nadir Overpasses (SNOs) Predictions

Prediction of SNOs between NOAA-15 and METOP-C Satellite Orbit:

Table of predicted SNOs for the next 14.0 days since TLE Epoch: 10/2/2021
Index Date (NOAA-15) Time (NOAA-15) Lat,Lon (NOAA-15) SZA (NOAA-15 ) Date (METOP-C) Time (METOP-C) Lat,Lon (METOP-C) SZA (METOP-C ) Distance(km) Time Diff (sec)
1 10/14/2021 03:14:42 -81.02, -10.93 88.63 10/14/2021 03:13:33 -81.01, -10.83 88.65 2.13 69
2 10/14/2021 04:05:11 81.02, 156.50 91.40 10/14/2021 04:04:12 81.02, 156.68 91.39 3.06 59
3 10/14/2021 04:55:44 -81.02, -36.15 88.60 10/14/2021 04:54:55 -81.01, -36.30 88.65 3.06 49
4 10/14/2021 05:46:13 81.02, 131.28 91.42 10/14/2021 05:45:34 81.01, 131.20 91.40 1.57 39
5 10/14/2021 06:36:46 -81.02, -61.37 88.57 10/14/2021 06:36:16 -81.02, -61.41 88.59 0.76 30
6 10/14/2021 07:27:15 81.02, 106.07 91.45 10/14/2021 07:26:55 81.02, 106.09 91.45 0.84 20
7 10/14/2021 08:17:48 -81.02, -86.59 88.54 10/14/2021 08:17:37 -81.03, -86.52 88.53 1.54 11
8 10/14/2021 09:08:17 81.03, 80.48 91.46 10/14/2021 09:08:16 81.02, 80.61 91.46 2.66 1
9 10/14/2021 09:58:49 -81.02,-111.81 88.51 10/14/2021 09:58:58 -81.02,-112.00 88.52 3.23 9
10 10/14/2021 10:49:18 81.01, 55.63 91.51 10/14/2021 10:49:37 81.03, 55.50 91.52 2.79 19
11 10/14/2021 11:39:51 -81.02,-137.04 88.48 10/14/2021 11:40:19 -81.03,-137.11 88.47 2.11 28
12 10/14/2021 12:30:21 81.03, 30.05 91.52 10/14/2021 12:30:59 81.02, 30.02 91.53 0.81 38
13 10/14/2021 13:20:54 -81.03,-162.62 88.48 10/14/2021 13:21:41 -81.02,-162.59 88.46 0.87 47
14 10/14/2021 14:11:23 81.03, 4.83 91.55 10/14/2021 14:12:20 81.03, 4.91 91.58 1.51 57
15 10/14/2021 15:01:56 -81.03, 172.15 88.45 10/14/2021 15:03:02 -81.03, 172.31 88.40 2.71 66



Historial Predications of SNOs between NOAA-15 and METOP-C
